Location: Kawakawa
(35.3830°S, 174.0670°E)
Time: 22:11:39
(UTC+12:00)

Cosmos 1805 Rocket - Pass Details

Date: 24 January 2019
Orbit: 605 x 630 km, 82.5° (Epoch: 22 April)

Event Time Altitude Azimuth Distance (km) Brightness Sun altitude
Rises 21:12:12 0° 189° (S) 2,903 7.6 -7.1°
Reaches altitude 10° 21:14:27 10° 189° (S) 1,988 6.8 -7.5°
Maximum altitude 21:18:51 80° 276° (W) 628 3.7 -8.3°
Drops below altitude 10° 21:23:10 10° 2° (N) 1,956 5.8 -9.0°
Sets 21:25:22 0° 3° (N) 2,852 6.6 -9.4°
